Burns Flat, OK

2:51 PM CST on February 13, 2016 (GMT -0600)
Clinton-Sherman

Weather History for KCSM - May, 2012

Change the Weather History Date:

Wednesday, May 9, 2012

  Actual Average Record
Temperature  
Mean Temperature 64 °F -  
Max Temperature 82 °F 78 °F 98 °F (2011)
Min Temperature 46 °F 53 °F 46 °F (2012)
Degree Days  
Heating Degree Days 2    
Growing Degree Days 14 (Base 50)    
Moisture  
Dew Point 37 °F    
Average Humidity 42    
Maximum Humidity 77    
Minimum Humidity 17    
Precipitation  
Precipitation 0.00 in - - ()
Sea Level Pressure  
Sea Level Pressure 30.04 in    
Wind  
Wind Speed 6 mph (SW)    
Max Wind Speed 9 mph    
Max Gust Speed 16 mph    
Visibility 10 miles    
Events      
Averages and records for this station are not official NWS values.
T = Trace of Precipitation, MM = Missing Value Source: NWS Daily Summary

Daily Weather History Graph

Daily Weather History Graph

Search for Another Location

Airport or City:

Trip Planner

Search our weather history database for the weather conditions in past years. The results will help you decide how hot, cold, wet, or windy it might be!

Date:

Astronomy

May. 09, 2012 Rise Set
Actual Time 6:37 AM CDT 8:29 PM CDT
Civil Twilight 6:09 AM CDT 8:57 PM CDT
Nautical Twilight 5:35 AM CDT 9:31 PM CDT
Astronomical Twilight 4:59 AM CDT 10:07 PM CDT
Moon No Moon Rise 9:56 AM CDT (5/9)
Length of Visible Light 14h 48m
Length of Day
13h 52m
Waning Gibbous, 82% of the Moon is Illuminated
May 9
Waning Gibbous
May 12
Last Quarter
May 20
New
May 28
First Quarter
Jun 4
Full

Hourly Weather History & Observations

Time (CDT) Temp. Windchill Dew Point Humidity Pressure Visibility Wind Dir Wind Speed Gust Speed Precip Events Conditions
12:53 AM 52.0 °F - 42.1 °F 69% 30.10 in 10.0 mi South 4.6 mph - N/A   Clear
1:53 AM 50.0 °F - 41.0 °F 71% 30.09 in 10.0 mi SSW 5.8 mph - N/A   Clear
2:53 AM 50.0 °F - 39.9 °F 68% 30.09 in 10.0 mi WSW 5.8 mph - N/A   Clear
3:53 AM 50.0 °F - 39.9 °F 68% 30.08 in 10.0 mi West 4.6 mph - N/A   Clear
4:53 AM 48.0 °F - 39.9 °F 74% 30.08 in 10.0 mi NW 6.9 mph - N/A   Clear
5:53 AM 46.9 °F - 39.9 °F 77% 30.09 in 10.0 mi WNW 5.8 mph - N/A   Clear
6:53 AM 46.0 °F 41.9 °F 39.0 °F 76% 30.11 in 10.0 mi NW 8.1 mph - N/A   Clear
7:53 AM 57.9 °F - 43.0 °F 58% 30.11 in 10.0 mi WNW 5.8 mph - N/A   Clear
8:53 AM 68.0 °F - 42.1 °F 39% 30.11 in 10.0 mi NW 6.9 mph - N/A   Clear
9:53 AM 72.0 °F - 39.9 °F 31% 30.11 in 10.0 mi West 4.6 mph - N/A   Clear
10:53 AM 73.9 °F - 37.0 °F 26% 30.10 in 10.0 mi Variable 4.6 mph - N/A   Clear
11:53 AM 75.0 °F - 35.1 °F 23% 30.09 in 10.0 mi ESE 5.8 mph - N/A   Clear
12:53 PM 77.0 °F - 33.1 °F 20% 30.06 in 10.0 mi Variable 4.6 mph - N/A   Clear
1:53 PM 80.1 °F - 33.1 °F 18% 30.04 in 10.0 mi NE 4.6 mph - N/A   Clear
2:53 PM 80.1 °F - 30.9 °F 17% 30.02 in 10.0 mi Variable 3.5 mph - N/A   Clear
3:53 PM 80.1 °F - 30.9 °F 17% 29.99 in 10.0 mi Variable 4.6 mph - N/A   Clear
4:53 PM 80.1 °F - 32.0 °F 17% 29.97 in 10.0 mi Variable 4.6 mph 16.1 mph N/A   Clear
5:53 PM 81.0 °F - 33.1 °F 18% 29.96 in 10.0 mi SSE 6.9 mph - N/A   Clear
6:53 PM 78.1 °F - 32.0 °F 19% 29.95 in 10.0 mi South 8.1 mph - N/A   Clear
7:53 PM 73.0 °F - 37.0 °F 27% 29.94 in 10.0 mi South 6.9 mph - N/A   Clear
8:53 PM 64.0 °F - 37.9 °F 38% 29.94 in 10.0 mi South 8.1 mph - N/A   Clear
9:53 PM 59.0 °F - 39.0 °F 48% 29.95 in 10.0 mi SSE 5.8 mph - N/A   Clear
10:53 PM 57.9 °F - 37.9 °F 47% 29.97 in 10.0 mi South 9.2 mph - N/A   Clear
11:53 PM 62.1 °F - 39.9 °F 44% 29.95 in 10.0 mi South 9.2 mph - N/A   Clear